Location: Grange Verzio
(44.5000°N, 6.9833°E)
Time: 01:12:40
(UTC+00:00)

Cosmos 1140 Rocket - Pass Details

Date: 01 February 2023
Orbit: 744 x 766 km, 74.1° (Epoch: 24 March)

Event Time Altitude Azimuth Distance (km) Brightness Sun altitude
Rises 17:01:00 0° 189° (S) 3,200 7.2 -4.2°
Reaches altitude 10° 17:03:23 10° 187° (S) 2,275 6.3 -4.6°
Maximum altitude 17:08:28 63° 107° (ESE) 839 3.5 -5.5°
Drops below altitude 10° 17:13:33 10° 27° (NNE) 2,277 5.5 -6.3°
Sets 17:15:56 0° 24° (NNE) 3,203 6.3 -6.7°
